Flag for Germany Weather past 2 weeks in Görlitz, Saxony, Germany

Now
59 °F

Sprinkles. Overcast.


Feels Like: 59 °F
Forecast: 46 / 60 °F
Wind: 5 mph from Southwest

Location: Goerlitz

Current Time: May 25, 2015 at 3:50:29 PM

Latest Report: May 25, 2015 at 3:00 PM


Visibility: 19 mi

Pressure: 29.89 "Hg

Humidity: 83%

Dew point: 54 °F

Location of GörlitzLocation

Historic Weather in Görlitz — Graph

°F

Görlitz temperature yesterday

Maximum temperature yesterday: 66 °F (at 6:00 PM)
Minimum temperature yesterday: 52 °F (at 7:00 AM)
Average temperature yesterday: 58 °F

Past Weeks' High & Low Weather Summary

 TemperatureHumidityPressure
High72 °F (May 12, 7:00 PM)100% (May 11, 6:00 AM)30.43 "Hg (May 11, 6:00 AM)
Low35 °F (May 15, 4:00 AM)28% (May 11, 2:00 PM)29.66 "Hg (May 19, 3:00 AM)
Average55 °F65%30.06 "Hg
* Reported May 10 2:00 PM — May 25 2:00 PM, Görlitz, Weather by CustomWeather, © 2015

Note: Actual official high and low records may vary slightly from our data, if they occured in-between our weather recording intervals... More about our weather records

Advertising

Görlitz weather history for previous 24 hours

 ConditionsComfort  
Time TempWeatherWind HumidityBarometerVisibility
2:00 PM
Mon, May 25
58 °FSprinkles. Overcast.9 mph84%29.90 "Hg6 mi
1:00 PM66 °FSprinkles. Overcast.2 mph56%29.88 "Hg12 mi
12:00 PM68 °FPartly sunny.2 mph55%29.89 "Hg19 mi
11:00 AM65 °FOvercast.1 mph58%29.91 "Hg16 mi
10:00 AM65 °FPassing clouds.3 mph59%29.93 "Hg12 mi
9:00 AM62 °FPassing clouds.3 mph71%29.95 "Hg11 mi
8:00 AM58 °FPassing clouds.2 mph75%29.96 "Hg11 mi
7:00 AM53 °FPassing clouds.2 mph90%29.98 "Hg11 mi
6:00 AM47 °FPassing clouds.1 mph96%30.00 "Hg10 mi
5:00 AM48 °FFog.1 mph96%30.01 "Hg11 mi
4:00 AM48 °FFog.No wind98%30.02 "Hg7 mi
3:00 AM47 °FClear.1 mph95%30.02 "Hg11 mi
2:00 AM50 °FClear.2 mph96%30.03 "Hg12 mi
1:00 AM51 °FClear.2 mph90%30.04 "Hg14 mi
12:00 AM52 °FPassing clouds.1 mph82%30.06 "Hg19 mi
11:00 PM
Sun, May 24
54 °FOvercast.2 mph76%30.05 "Hg22 mi
10:00 PM57 °FClear.2 mph67%30.05 "Hg22 mi
9:00 PM60 °FClear.1 mph60%30.03 "Hg25 mi
8:00 PM64 °FPassing clouds.1 mph51%30.03 "Hg28 mi
7:00 PM66 °FPassing clouds.1 mph43%30.03 "Hg28 mi
6:00 PM66 °FPassing clouds.1 mph47%30.04 "Hg25 mi
5:00 PM65 °FScattered clouds.2 mph48%30.06 "Hg28 mi
4:00 PM65 °FScattered clouds.2 mph53%30.07 "Hg28 mi
3:00 PM63 °FPartly sunny.2 mph61%30.09 "Hg22 mi
Weather by CustomWeather, © 2015

See weather overviewHow to use our weather pages